This demonstration page uses our WeatherBlox Daily Observations layout. Learn more.

Left ArrowRight Arrow

Hourly Observations for January 13, 2020

Temp ( °F °C ) Dew Point ( °F °C ) Humidity (%) Winds ( mph kmh ) Pressure ( in mb ) Visibility ( mi km ) Precip ( " mm )
12:53 am 00:53 Cloudy 42 5.6 37 2.8 82 82 Calm 30.26 1025 10 16 0.00 0.00
1:53 am 01:53 Cloudy 42 5.6 37 2.8 82 82 Calm 30.25 1024 10 16 0.00 0.00
2:53 am 02:53 Cloudy 42 5.6 39 3.9 89 89 Calm 30.26 1025 10 16 0.00 0.00
3:53 am 03:53 Cloudy 43 6.1 38 3.3 82 82 Calm 30.26 1025 10 16 0.00 0.00
4:53 am 04:53 Mostly Cloudy 43 6.1 38 3.3 82 82 VRB 5 7 30.26 1025 10 16 0.00 0.00
5:06 am 05:06 Partly Cloudy 42 5.6 38 3.3 85 85 SW 5 7 30.27 1025 10 16 0.00 0.00
5:31 am 05:31 Mostly Cloudy 43 6.1 37 2.8 80 80 WSW 6 9 30.28 1025 10 16 0.00 0.00
5:53 am 05:53 Cloudy 43 6.1 37 2.8 80 80 VRB 3 6 30.28 1026 10 16 0.00 0.00
6:53 am 06:53 Cloudy 42 5.6 37 2.8 82 82 WSW 5 7 30.31 1026 10 16 0.00 0.00
7:53 am 07:53 Cloudy 42 5.6 36 2.2 79 79 WSW 6 9 30.33 1027 10 16 0.00 0.00
8:53 am 08:53 Cloudy 42 5.6 35 1.7 76 76 W 6 9 30.36 1028 10 16 0.00 0.00
9:53 am 09:53 Cloudy 43 6.1 34 1.1 71 71 WSW 5 7 30.38 1029 10 16 0.00 0.00
10:53 am 10:53 Cloudy 43 6.1 33 0.6 68 68 WNW 7 11 30.41 1030 10 16 0.00 0.00
11:53 am 11:53 Cloudy 43 6.1 34 1.1 71 71 VRB 5 7 30.41 1030 10 16 0.00 0.00
12:53 pm 12:53 Cloudy 45 7.2 35 1.7 68 68 VRB 3 6 30.39 1029 10 16 0.00 0.00
1:53 pm 13:53 Partly Cloudy 46 7.8 34 1.1 63 63 VRB 3 6 30.37 1029 10 16 0.00 0.00
2:03 pm 14:03 Mostly Cloudy 46 7.8 34 1.1 63 63 WNW 3 6 30.37 1029 10 16 0.00 0.00
2:49 pm 14:49 Partly Cloudy 46 8 34 1 62 62 WNW 3 6 30.36 1028 10 16 0.00 0.00
2:53 pm 14:53 Partly Cloudy 47 8.3 34 1.1 61 61 Calm 30.35 1028 10 16 0.00 0.00
3:53 pm 15:53 Sunny 48 8.9 35 1.7 61 61 Calm 30.35 1028 10 16 0.00 0.00
4:53 pm 16:53 Sunny 45 7.2 35 1.7 68 68 N 6 9 30.36 1028 10 16 0.00 0.00
5:53 pm 17:53 Clear 40 4.4 34 1.1 79 79 NNE 3 6 30.36 1028 10 16 0.00 0.00
6:53 pm 18:53 Clear 37 2.8 34 1.1 89 89 Calm 30.36 1028 10 16 0.00 0.00
7:53 pm 19:53 Clear 34 1.1 31 -0.6 89 89 Calm 30.35 1028 10 16 0.00 0.00
8:53 pm 20:53 Clear 35 1.7 31 -0.6 85 85 Calm 30.33 1027 10 16 0.00 0.00
9:53 pm 21:53 Clear 33 0.6 31 -0.6 92 92 Calm 30.31 1026 10 16 0.00 0.00
10:53 pm 22:53 Clear 36 2.2 32 0 86 86 ESE 3 6 30.29 1026 10 16 0.00 0.00
11:53 pm 23:53 Clear 36 2.2 34 1.1 93 93 E 3 6 30.27 1025 10 16 0.00 0.00

Powered by AerisWeather